Regional Weather Roundup
Issued by NWS

Home | Current Version | Previous Version | Graphics & Text | Print | Product List | Glossary On
Versions: 1 2 3 4 5 6 7 8 9 10 11 12 13 14 15 16 17 18 19 20 21 22 23 24 25 26 27 28 29 30 31 32 33 34 35 36 37 38 39 40 41 42 43 44 45 46 47 48 49 50
000
ASUS43 KFSD 270702
RWRSD

WEATHER ROUNDUP FOR SOUTH DAKOTA
NATIONAL WEATHER SERVICE SIOUX FALLS SD
200 AM CDT WED JUL 27 2016

NOTE: "FAIR" INDICATES FEW OR NO CLOUDS BELOW 12,000 FEET WITH NO
SIGNIFICANT WEATHER AND/OR OBSTRUCTIONS TO VISIBILITY.


SDZ001>005-009-010-012>017-270800-
NORTHWEST AND NORTH CENTRAL SOUTH DAKOTA

CITY           SKY/WX    TMP DP  RH WIND       PRES   REMARKS
BUFFALO          N/A     63  60  90 NE6       30.07R
FAITH            N/A     63  59  87 N12       30.05S
MOBRIDGE       CLOUDY    68  63  84 N5        29.98S
$$

SDZ012>016-024>037-041>051-057-063-072>074-270800-
SOUTHWEST AND SOUTH CENTRAL SOUTH DAKOTA

CITY           SKY/WX    TMP DP  RH WIND       PRES   REMARKS
RAPID CTY ARPT PTCLDY    65  57  75 N10       30.09S
PIERRE         MOCLDY    67  63  87 NE5       29.99R
CUSTER         CLEAR     59  53  80 N6        30.21F
ELLSWORTH AFB  CLEAR     68  59  73 N10       30.09S
PHILIP         CLOUDY    66  61  84 SW3       30.00R
PINE RIDGE     CLOUDY    62  59  90 NW3       30.08R
WINNER         FAIR      71  58  63 W12       29.97R
$$

SDZ004>011-016>023-039-040-270800-
NORTHEAST SOUTH DAKOTA

CITY           SKY/WX    TMP DP  RH WIND       PRES   REMARKS
ABERDEEN       CLOUDY    69  64  84 NE18      29.97S
WATERTOWN      CLOUDY    71  64  78 SE6       29.95F
BROOKINGS      CLOUDY    70  66  87 S10       29.95F
SISSETON         N/A     66  64  93 CALM      29.98S
$$

SDZ017-020-022-023-036>040-048>070-270800-
SOUTHEAST SOUTH DAKOTA

CITY           SKY/WX    TMP DP  RH WIND       PRES   REMARKS
SIOUX FALLS    CLOUDY    74  64  71 S13       29.96F
HURON          CLOUDY    73  66  78 SW6       29.91S
CHAMBERLAIN    CLOUDY    69  63  79 CALM      29.95F
MITCHELL       CLOUDY    73  68  84 W3        29.93S
YANKTON        CLOUDY    75  64  69 SW10      29.99R
$$

ABBREVIATIONS USED IN REMARKS
   TC - TEMPERATURE IN CELSIUS
  WCI - WIND CHILL INDEX
   HX - HEAT INDEX
  VSB - VISIBILITY





USA.gov is the U.S. government's official web portal to all federal, state and local government web resources and services.